HF3P-11 Weather Reports


time (UTC)temp
C
wind
direction
speed
KPH
gust
KPH
rain 1hr
cm
rain 24hr
cm
rain mn
cm
humidity
%
barometer
mb
20260504082003 21 208 6.4 12.9 0.00 0.00 0.00 50 1005.4
20260504081510 21 211 6.4 12.9 0.00 0.00 0.00 50 1005.4
20260504081003 21 222 6.4 12.9 0.00 0.00 0.00 50 1005.2
20260504080510 20 226 4.8 9.7 0.00 0.00 0.00 50 1005.2
20260504050003 17 204 6.4 12.9 0.00 0.00 0.00 52 1004.8
20260504045511 17 210 6.4 12.9 0.00 0.00 0.00 53 1004.6
20260504045004 16 195 6.4 11.3 0.00 0.00 0.00 56 1004.6
20260504044511 15 190 4.8 11.3 0.00 0.00 0.00 57 1004.7
20260504044003 14 192 4.8 9.7 0.00 0.00 0.00 58 1004.6
20260504043511 13 193 4.8 12.9 0.00 0.00 0.00 58 1004.6
20260504043003 13 197 4.8 12.9 0.00 0.00 0.00 58 1004.5
20260504042510 13 197 4.8 12.9 0.00 0.00 0.00 58 1004.4
20260504042003 13 195 4.8 11.3 0.00 0.00 0.00 58 1004.4
20260504041511 13 195 4.8 11.3 0.00 0.00 0.00 58 1004.4
20260504041004 13 189 6.4 9.7 0.00 0.00 0.00 58 1004.4
20260504040510 12 190 6.4 11.3 0.00 0.00 0.00 58 1004.4
20260504040004 12 190 4.8 12.9 0.00 0.00 0.00 58 1004.3
20260504035511 12 192 6.4 12.9 0.00 0.00 0.00 58 1004.2
20260504035003 13 201 6.4 12.9 0.00 0.00 0.00 58 1004.2
20260504034511 12 196 6.4 12.9 0.00 0.00 0.00 58 1004.2
20260504034003 12 188 6.4 12.9 0.00 0.00 0.00 57 1004.3
20260504033511 12 188 6.4 12.9 0.00 0.00 0.00 57 1004.2
20260504033003 12 184 6.4 14.5 0.00 0.00 0.00 57 1004.1
20260504032511 12 178 8.0 14.5 0.00 0.00 0.00 57 1004.1
20260504032003 12 188 6.4 14.5 0.00 0.00 0.00 57 1004.3
20260504031511 13 193 6.4 12.9 0.00 0.00 0.00 57 1004.2
20260504031003 13 184 4.8 11.3 0.00 0.00 0.00 56 1004.3
20260504030511 13 189 6.4 12.9 0.00 0.00 0.00 56 1004.4
20260504030003 13 192 8.0 12.9 0.00 0.00 0.00 56 1004.1
20260504025510 13 191 8.0 12.9 0.00 0.00 0.00 56 1004.1
20260504025003 13 186 8.0 12.9 0.00 0.00 0.00 55 1004.1
20260504024510 13 190 8.0 17.7 0.00 0.00 0.00 54 1004.0
20260504024004 13 196 8.0 17.7 0.00 0.00 0.00 54 1004.0
20260504023511 13 195 8.0 14.5 0.00 0.00 0.00 54 1004.1
20260504023011 13 189 6.4 12.9 0.00 0.00 0.00 53 1004.3
20260504022503 13 181 6.4 12.9 0.00 0.00 0.00 53 1004.4
20260504022012 13 189 6.4 12.9 0.00 0.00 0.00 52 1004.4
20260504021504 14 206 6.4 12.9 0.00 0.00 0.00 52 1004.3
20260504021011 14 222 6.4 12.9 0.00 0.00 0.00 52 1004.4
20260504020510 14 216 6.4 12.9 0.00 0.00 0.00 51 1004.4
20260504020003 14 197 6.4 12.9 0.00 0.00 0.00 51 1004.4
20260504015510 14 195 6.4 12.9 0.00 0.00 0.00 51 1004.2
20260504015004 14 213 6.4 12.9 0.00 0.00 0.00 51 1004.3
20260504014511 14 212 6.4 12.9 0.00 0.00 0.00 51 1004.2
20260504014003 14 191 6.4 14.5 0.00 0.00 0.00 50 1004.2
20260504013510 15 186 8.0 16.1 0.00 0.00 0.00 50 1004.2
20260504013003 15 187 8.0 16.1 0.00 0.00 0.00 50 1004.2
20260504012510 15 191 8.0 16.1 0.00 0.00 0.00 50 1004.3
20260504012004 15 195 8.0 14.5 0.00 0.00 0.00 50 1004.2
20260504011510 15 186 8.0 12.9 0.00 0.00 0.00 50 1004.2
20260504011004 15 181 9.7 12.9 0.00 0.00 0.00 50 1004.0
20260504010511 15 183 8.0 17.7 0.00 0.00 0.00 49 1004.1
20260504010003 15 195 8.0 17.7 0.00 0.00 0.00 49 1003.9
20260504005512 15 196 8.0 17.7 0.00 0.00 0.00 49 1004.0
20260504005004 15 189 9.7 17.7 0.00 0.00 0.00 48 1004.1
20260504004510 15 188 9.7 17.7 0.00 0.00 0.00 48 1004.0
20260504004011 15 190 9.7 17.7 0.00 0.00 0.00 48 1004.3
20260504003504 15 194 9.7 17.7 0.00 0.00 0.00 48 1004.2
20260504003011 16 188 9.7 17.7 0.00 0.00 0.00 48 1004.1
20260504002503 15 185 9.7 16.1 0.00 0.00 0.00 47 1004.0
20260504002012 15 185 9.7 14.5 0.00 0.00 0.00 47 1004.2
20260504001504 16 181 9.7 14.5 0.00 0.00 0.00 47 1004.1
20260504001010 16 181 9.7 14.5 0.00 0.00 0.00 46 1004.0
20260504000503 16 182 9.7 16.1 0.00 0.00 0.00 46 1004.0
20260504000011 16 183 9.7 17.7 0.00 0.00 0.00 46 1004.2
20260503235504 16 178 9.7 17.7 0.00 0.00 0.00 45 1004.0
20260503235011 15 185 11.3 17.7 0.00 0.00 0.00 45 1004.1
20260503234504 16 201 11.3 20.9 0.00 0.00 0.00 45 1004.1
20260503234011 16 204 9.7 20.9 0.00 0.00 0.00 44 1004.2
20260503233504 16 199 9.7 19.3 0.00 0.00 0.00 44 1004.2
20260503233010 16 192 9.7 17.7 0.00 0.00 0.00 44 1004.3
20260503232503 16 181 11.3 20.9 0.00 0.00 0.00 44 1004.2
20260503232012 16 188 9.7 20.9 0.00 0.00 0.00 44 1004.2
20260503231504 16 194 9.7 17.7 0.00 0.00 0.00 43 1004.3
20260503231011 16 186 9.7 16.1 0.00 0.00 0.00 43 1004.3
20260503230504 17 188 9.7 17.7 0.00 0.00 0.00 42 1004.2
20260503225959 17 193 9.7 17.7 0.00 0.00 0.00 42 1004.3
20260503225452 17 198 8.0 16.1 0.00 0.00 0.00 42 1004.3
20260503224958 17 202 9.7 17.7 0.00 0.00 0.00 42 1004.4
20260503224453 17 188 9.7 17.7 0.00 0.00 0.00 42 1004.2
20260503223958 17 185 9.7 17.7 0.00 0.00 0.00 41 1004.3
20260503223451 17 185 9.7 17.7 0.00 0.00 0.00 41 1004.3
20260503222958 17 179 8.0 16.1 0.00 0.00 0.00 41 1004.3
20260503222452 17 186 8.0 16.1 0.00 0.00 0.00 40 1004.2
20260503221959 17 192 8.0 16.1 0.00 0.00 0.00 40 1004.2
20260503221451 17 192 8.0 17.7 0.00 0.00 0.00 40 1004.3
20260503220958 17 187 8.0 17.7 0.00 0.00 0.00 39 1004.2
20260503220451 17 181 8.0 17.7 0.00 0.00 0.00 39 1004.3
20260503215958 17 179 9.7 17.7 0.00 0.00 0.00 39 1004.3
20260503215451 17 181 9.7 17.7 0.00 0.00 0.00 39 1004.4
20260503214959 17 182 8.0 17.7 0.00 0.00 0.00 39 1004.3
20260503214451 17 189 6.4 17.7 0.00 0.00 0.00 39 1004.3
20260503214000 17 194 6.4 14.5 0.00 0.00 0.00 39 1004.4
20260503213452 17 188 4.8 11.3 0.00 0.00 0.00 38 1004.4
20260503213000 17 179 4.8 11.3 0.00 0.00 0.00 38 1004.3
20260503212452 17 176 6.4 12.9 0.00 0.00 0.00 38 1004.3
20260503211959 17 187 6.4 12.9 0.00 0.00 0.00 38 1004.4
20260503211452 17 178 6.4 12.9 0.00 0.00 0.00 38 1004.6
20260503210959 17 146 6.4 12.9 0.00 0.00 0.00 38 1004.4
20260503210452 18 159 6.4 11.3 0.00 0.00 0.00 37 1004.5
20260503205959 17 179 6.4 11.3 0.00 0.00 0.00 37 1004.6
20260503205459 18 169 6.4 12.9 0.00 0.00 0.00 37 1004.4
20260503204952 18 163 6.4 12.9 0.00 0.00 0.00 37 1004.6
20260503204459 18 167 6.4 12.9 0.00 0.00 0.00 37 1004.6
20260503203951 18 173 6.4 12.9 0.00 0.00 0.00 36 1004.6
20260503203458 18 176 4.8 12.9 0.00 0.00 0.00 36 1004.6
20260503202951 18 175 6.4 12.9 0.00 0.00 0.00 36 1004.6
20260503202459 18 178 6.4 12.9 0.00 0.00 0.00 36 1004.5
20260503201955 18 192 6.4 11.3 0.00 0.00 0.00 35 1004.6
20260503201455 19 187 6.4 14.5 0.00 0.00 0.00 35 1004.7
20260503200959 19 181 8.0 14.5 0.00 0.00 0.00 35 1004.5
20260503200452 19 178 8.0 14.5 0.00 0.00 0.00 35 1004.6
20260503195959 19 182 6.4 12.9 0.00 0.00 0.00 35 1004.6
20260503195451 19 184 6.4 12.9 0.00 0.00 0.00 35 1004.7
20260503194959 19 186 6.4 12.9 0.00 0.00 0.00 35 1004.6
20260503194452 19 186 6.4 12.9 0.00 0.00 0.00 35 1004.6
20260503193953 19 181 6.4 12.9 0.00 0.00 0.00 34 1004.7
20260503193459 19 182 6.4 12.9 0.00 0.00 0.00 35 1004.7
20260503192952 19 174 6.4 12.9 0.00 0.00 0.00 35 1004.7
20260503192500 19 171 4.8 11.3 0.00 0.00 0.00 34 1004.7
20260503191952 20 181 4.8 11.3 0.00 0.00 0.00 35 1004.8
20260503191459 20 195 4.8 12.9 0.00 0.00 0.00 34 1004.7
20260503190952 20 193 6.4 12.9 0.00 0.00 0.00 34 1004.6
20260503190459 20 176 6.4 11.3 0.00 0.00 0.00 33 1004.6
20260503190000 20 168 6.4 11.3 0.00 0.00 0.00 33 1004.6
20260503185452 20 172 4.8 11.3 0.00 0.00 0.00 33 1004.6
20260503185000 20 181 6.4 12.9 0.00 0.00 0.00 32 1004.7
20260503184452 21 183 6.4 12.9 0.00 0.00 0.00 32 1004.5
20260503183959 21 182 4.8 11.3 0.00 0.00 0.00 31 1004.6
20260503183451 21 175 4.8 11.3 0.00 0.00 0.00 31 1004.5
20260503182959 21 172 4.8 9.7 0.00 0.00 0.00 30 1004.4
20260503182452 21 175 3.2 9.7 0.00 0.00 0.00 30 1004.4
20260503182000 22 177 4.8 12.9 0.00 0.00 0.00 29 1004.4
20260503181452 22 177 6.4 12.9 0.00 0.00 0.00 29 1004.3
20260503181000 22 178 6.4 11.3 0.00 0.00 0.00 29 1004.3
20260503180452 22 170 6.4 16.1 0.00 0.00 0.00 28 1004.2
20260503180000 22 165 4.8 16.1 0.00 0.00 0.00 28 1004.1
20260503175452 22 182 4.8 12.9 0.00 0.00 0.00 28 1004.2
20260503174959 22 182 4.8 12.9 0.00 0.00 0.00 28 1004.3
20260503174452 23 178 4.8 12.9 0.00 0.00 0.00 28 1004.2
20260503173959 23 184 4.8 12.9 0.00 0.00 0.00 28 1004.3
20260503173452 23 178 6.4 12.9 0.00 0.00 0.00 28 1004.1
20260503172959 23 173 4.8 12.9 0.00 0.00 0.00 28 1004.1
20260503172452 23 178 4.8 12.9 0.00 0.00 0.00 29 1004.4
20260503172000 24 194 6.4 17.7 0.00 0.00 0.00 28 1004.3
20260503171452 24 195 8.0 17.7 0.00 0.00 0.00 28 1004.3
20260503170959 24 184 8.0 14.5 0.00 0.00 0.00 27 1004.1
20260503170452 25 186 8.0 16.1 0.00 0.00 0.00 27 1004.2
20260503150953 27 182 11.3 22.5 0.00 0.00 0.00 26 1004.7
20260503150500 27 184 12.9 27.4 0.00 0.00 0.00 26 1004.8
20260503131000 28 189 16.1 25.7 0.00 0.00 0.00 28 1006.1
20260503130452 27 195 14.5 24.1 0.00 0.00 0.00 28 1006.1
20260503110452 26 216 11.3 20.9 0.00 0.00 0.00 33 1007.1